Regional Weather Roundup
Issued by NWS

Home | Current Version | Previous Version | Text Only | Print | Product List | Glossary On
Versions: 1 2 3 4 5 6 7 8 9 10 11 12 13 14 15 16 17 18 19 20 21 22 23 24 25 26 27 28 29 30 31 32 33 34 35 36 37 38 39 40 41 42 43 44 45 46 47 48 49 50
109
ASCA42 TJSJ 040210
RWRPR
PUERTO RICO/U.S. VIRGIN ISLANDS HOURLY WEATHER ROUNDUP
NATIONAL WEATHER SERVICE SAN JUAN PR
1000 PM AST TUE MAY 03 2016

PRZ001-004-040300-
PUERTO RICO

CITY           SKY/WX    TMP DP  RH WIND       PRES   REMARKS
SAN JUAN LMM   PTCLDY    79  73  83 E7        30.04R
CEIBA          PTCLDY    79  72  78 E6        30.07R
$$

PRZ006-007-040300-
U.S. VIRGIN ISLANDS

CITY           SKY/WX    TMP DP  RH WIND       PRES   REMARKS
CHARLOTTE AMA  CLOUDY    81  73  78 E13       30.04R
CHRISTIANSTED  PTCLDY    79  73  83 NE8       30.05R
$$

HOURLY WEATHER ROUNDUP FOR THE NEWS MEDIA

CITY           SKY/WX    TMP DP  RH WIND       PRES   REMARKS
ORLANDO        CLOUDY    83  69  62 W7        29.90R
NEW YORK       DRIZZLE   50  49  96 VRB6      29.86F FOG
NEWARK         CLOUDY    52  49  92 SE3       29.85S FOG
CHICAGO        CLOUDY    61  40  45 SW10      29.75F
HARTFORD       CLOUDY    46  42  86 NE5       29.86S
BOSTON         CLOUDY    46  41  82 E5        29.90R
DALLAS         MOCLDY    69  46  43 CALM      30.05R
PHILADELPHIA   CLOUDY    54  49  83 NE7       29.83S
LOS ANGELES    CLOUDY    60  55  83 W14       29.92R
WASHINGTON DC  CLOUDY    60  57  89 NE7       29.78R



USA.gov is the U.S. government's official web portal to all federal, state and local government web resources and services.